Location: Home
(42.5358°N, 72.7383°W)
Time: 04:51:25
(UTC-04:00)

ALSAT 1N - Visible Passes

Search period start: 26 June 2022 00:00
Search period end: 06 July 2022 00:00
Orbit: 657 x 699 km, 97.9° (Epoch: 24 June)

Date Brightness Start Highest point End Pass type
(mag) Time Alt. Az. Time Alt. Az. Time Alt. Az.
26 Jun ? 21:20:32 10° S 21:24:59 46° W 21:29:25 10° NNW visible
27 Jun ? 21:56:57 10° SW 22:00:22 20° W 22:03:48 10° NW visible
29 Jun ? 21:29:02 10° SSW 21:33:19 37° W 21:37:34 10° NNW visible
30 Jun ? 22:05:48 10° SW 22:08:44 17° W 22:11:41 10° NW visible
01 Jul ? 21:01:44 10° S 21:06:20 71° WSW 21:10:54 10° NNW visible
02 Jul ? 21:37:35 10° SSW 21:41:38 30° W 21:45:40 10° NW visible
03 Jul ? 22:14:51 10° WSW 22:17:06 13° W 22:19:22 10° WNW visible
04 Jul ? 21:10:06 10° S 21:14:37 57° W 21:19:07 10° NNW visible
05 Jul ? 21:46:11 10° SSW 21:49:57 25° W 21:53:43 10° NW visible
